User: anonymous   Login
Location: Fort Wayne
(41.1310°N, 85.1290°W)
Time: 22:51:03
(UTC-04:00)
Language:

Helios 1B - Orbit

View from above orbital plane
View from above orbital plane
View from above satellite
View from above satellite

Ground track
Ground track

The orbit data is extracted from the following two-line orbital elements,

1 25977U 99064A   17147.36948780 +.00000094 +00000-0 +18722-4 0  9990
2 25977 098.1482 258.4979 0001696 045.8346 314.3005 14.82261858209620
Epoch (UTC): 27 May 2017 08:52:03
Eccentricity: 0.0001696
inclination: 98.1482°
perigee height: 621 km
apogee height: 623 km
right ascension of ascending node: 258.4979°
argument of perigee: 45.8346°
revolutions per day: 14.82261858
mean anomaly at epoch: 314.3005°
orbit number at epoch: 20962

The dashed part of the orbit path shows where the satellite is in the earth's shadow,  

DLR